This demonstration page uses our WeatherBlox Daily Observations layout. Learn more.

Left ArrowRight Arrow

Hourly Observations for March 17, 2020

Temp ( °F °C ) Dew Point ( °F °C ) Humidity (%) Winds ( mph kmh ) Pressure ( in mb ) Visibility ( mi km ) Precip ( " mm )
12:53 am 00:53 Cloudy with Rain 42 5.6 39 3.9 89 89 ENE 6 9 29.92 1013 6 10 0.08 2.03
1:17 am 01:17 Cloudy with Rain 42 5.6 39 3.9 89 89 ENE 6 9 29.94 1014 6 10 0.05 1.27
1:46 am 01:46 Cloudy with Light Rain 41 5 38 3.3 89 89 NE 9 15 29.94 1014 7 11 0.11 2.79
1:53 am 01:53 Cloudy with Light Rain 41 5 38 3.3 89 89 NE 7 11 29.92 1013 7 11 0.12 3.05
2:08 am 02:08 Cloudy with Light Rain 41 5 38 3.3 89 89 NE 7 11 29.94 1014 9 14 0.02 0.51
2:53 am 02:53 Cloudy with Light Rain 40 4.4 37 2.8 89 89 N 7 11 29.93 1013 10 16 0.04 1.02
3:53 am 03:53 Cloudy with Light Rain 40 4.4 37 2.8 89 89 NNE 6 9 29.92 1013 10 16 0.02 0.51
4:25 am 04:25 Cloudy with Light Rain 39 3.9 37 2.8 93 93 VRB 3 6 29.93 1014 9 14 0.03 0.76
4:32 am 04:32 Cloudy with Light Rain 39 3.9 37 2.8 93 93 N 3 6 29.94 1014 9 14 0.03 0.76
4:41 am 04:41 Cloudy with Light Rain 39 3.9 37 2.8 93 93 NNW 5 7 29.94 1014 10 16 0.04 1.02
4:53 am 04:53 Cloudy with Light Rain 39 3.9 37 2.8 93 93 NNW 3 6 29.92 1013 9 14 0.05 1.27
5:08 am 05:08 Cloudy with Light Rain 40 4.4 37 2.8 89 89 N 5 7 29.94 1014 10 16 0.01 0.25
5:40 am 05:40 Cloudy with Light Rain 40 4.4 38 3.3 93 93 N 5 7 29.95 1014 8 13 0.04 1.02
5:53 am 05:53 Cloudy with Rain 40 4.4 38 3.3 93 93 N 5 7 29.93 1014 7 11 0.06 1.52
6:53 am 06:53 Cloudy with Rain 40 4.4 38 3.3 93 93 N 7 11 29.94 1014 7 11 0.08 2.03
7:22 am 07:22 Cloudy with Light Rain 40 4.4 38 3.3 93 93 N 6 9 29.96 1015 9 14 0.04 1.02
7:38 am 07:38 Cloudy with Light Rain 40 4.4 38 3.3 93 93 N 6 9 29.97 1015 6 10 0.06 1.52
7:53 am 07:53 Cloudy with Light Rain 40 4.4 38 3.3 93 93 N 6 9 29.95 1014 7 11 0.08 2.03
8:53 am 08:53 Cloudy with Light Rain 40 4.4 38 3.3 93 93 N 8 13 29.96 1015 7 11 0.07 1.78
9:53 am 09:53 Cloudy with Light Rain 41 5 38 3.3 89 89 N 6 9 29.97 1015 9 14 0.04 1.02
10:53 am 10:53 Cloudy with Light Rain 41 5 38 3.3 89 89 N 7 11 29.97 1015 5 8 0.05 1.27
11:03 am 11:03 Cloudy with Light Rain 41 5 38 3.3 89 89 NNW 6 9 29.99 1015 6 10 0.00 0.00
11:53 am 11:53 Cloudy with Light Rain 42 5.6 39 3.9 89 89 NW 3 6 29.96 1015 6 10 0.04 1.02
12:03 pm 12:03 Cloudy with Light Rain 42 5.6 39 3.9 89 89 N 5 7 29.98 1015 6 10 0.01 0.25
12:53 pm 12:53 Cloudy with Light Rain 42 5.6 40 4.4 92 92 N 5 7 29.96 1015 5 8 0.05 1.27
1:48 pm 13:48 Cloudy with Light Rain 43 6 39 4 87 87 W 5 7 29.97 1015 4 6 0.07 1.78
1:53 pm 13:53 Cloudy with Light Rain 42 5.6 39 3.9 89 89 W 3 6 29.95 1014 4 6 0.08 2.03
2:53 pm 14:53 Cloudy with Light Rain 43 6.1 40 4.4 89 89 SW 3 6 29.92 1013 6 10 0.05 1.27
3:21 pm 15:21 Cloudy with Light Rain 43 6.1 40 4.4 89 89 Calm 29.94 1014 5 8 0.02 0.51
3:36 pm 15:36 Cloudy with Light Rain 44 6.7 40 4.4 85 85 S 7 11 29.92 1013 6 10 0.04 1.02
3:53 pm 15:53 Cloudy with Light Rain 44 6.7 41 5 89 89 WSW 6 9 29.91 1013 4 6 0.06 1.52
4:00 pm 16:00 Cloudy with Light Rain 42 5.6 39 3.9 89 89 NW 8 13 29.93 1013 4 6 0.01 0.25
4:23 pm 16:23 Cloudy with Light Rain 42 5.6 39 3.9 89 89 NNW 5 7 29.93 1013 5 8 0.03 0.76
4:53 pm 16:53 Cloudy with Rain 42 5.6 40 4.4 92 92 Calm 29.92 1013 3 5 0.08 2.03
5:21 pm 17:21 Cloudy with Light Rain 43 6.1 40 4.4 89 89 Calm 29.93 1013 3 4 0.05 1.27
5:23 pm 17:23 Cloudy with Light Rain 43 6.1 40 4.4 89 89 Calm 29.93 1013 3 5 0.05 1.27
5:43 pm 17:43 Cloudy with Light Rain 43 6.1 40 4.4 89 89 Calm 29.92 1013 3 4 0.08 2.03
5:53 pm 17:53 Cloudy with Light Rain 42 5.6 40 4.4 92 92 Calm 29.90 1012 3 4 0.09 2.29
6:00 pm 18:00 Cloudy with Light Rain 42 5.6 40 4.4 92 92 NW 3 6 29.91 1013 3 5 0.00 0.00
6:11 pm 18:11 Cloudy with Light Rain 42 5.6 40 4.4 92 92 NW 5 7 29.91 1013 3 4 0.02 0.51
6:31 pm 18:31 Cloudy with Rain 42 5.6 40 4.4 92 92 N 3 6 29.91 1013 3 4 0.04 1.02
6:43 pm 18:43 Cloudy with Light Rain 42 5.6 40 4.4 92 92 N 5 7 29.92 1013 3 5 0.06 1.52
6:53 pm 18:53 Cloudy with Light Rain 42 5.6 40 4.4 92 92 N 3 6 29.90 1013 3 5 0.07 1.78
7:02 pm 19:02 Cloudy with Light Rain 42 5.6 40 4.4 92 92 N 5 7 29.92 1013 3 5 0.02 0.51
7:18 pm 19:18 Cloudy with Rain 42 5.6 40 4.4 92 92 N 5 7 29.92 1013 3 4 0.04 1.02
7:26 pm 19:26 Cloudy with Rain 42 5.6 39 3.9 89 89 N 5 7 29.93 1013 3 4 0.06 1.52
7:53 pm 19:53 Cloudy with Light Rain 41 5 40 4.4 96 96 NNW 6 9 29.91 1013 3 4 0.11 2.79
8:00 pm 20:00 Cloudy with Rain 41 5 40 4.4 96 96 NNW 5 7 29.92 1013 5 8 0.01 0.25
8:30 pm 20:30 Cloudy with Light Rain 41 5 40 4.4 96 96 NNW 5 7 29.93 1013 5 8 0.04 1.02
8:53 pm 20:53 Cloudy with Light Rain 41 5 39 3.9 93 93 N 6 9 29.92 1013 6 10 0.07 1.78
9:08 pm 21:08 Cloudy with Light Rain 42 5.6 39 3.9 89 89 N 5 7 29.94 1014 6 10 0.02 0.51
9:53 pm 21:53 Cloudy with Light Rain 41 5 39 3.9 93 93 Calm 29.92 1013 7 11 0.05 1.27
10:53 pm 22:53 Cloudy with Light Rain 41 5 39 3.9 93 93 N 5 7 29.92 1013 9 14 0.02 0.51
11:10 pm 23:10 Cloudy with Light Rain 41 5 39 3.9 93 93 N 6 9 29.94 1014 10 16 0.01 0.25
11:53 pm 23:53 Cloudy with Light Rain 40 4.4 38 3.3 93 93 N 7 11 29.92 1013 10 16 0.02 0.51

Powered by AerisWeather